Temperature
17 18 18 19 19 19 19 19 18 18 17 16 15 15 14 14 13 13 13 12 12 12 11 11 11 11 11 11 10 9 9 8 8 8 8 8 8 8 7 7 7 7 7
16 17 17 18 18 18 18 18 18 17 16 16 15 15 14 14 13 13 12 12 12 11 11 11 11 11 10 10 9 8 8 7 6 6 6 6 6 6 6 6 6 5 5
16 17 17 17 18 17 17 18 17 16 15 15 15 14 14 13 13 12 12 11 11 11 11 11 10 10 10 9 8 7 6 6 5 4 3 3 2 3 4 4 4 4 4
16 16 17 17 17 17 17 17 16 15 15 14 14 14 14 13 12 12 12 11 11 10 10 10 10 9 9 8 7 6 5 5 4 4 3 2 1 -0 0 2 3 3 3
16 16 17 17 17 17 16 16 15 14 14 13 13 13 13 13 12 11 11 11 10 10 10 9 9 8 8 7 6 5 5 4 3 3 2 2 1 -1 -2 -2 -0 1 2
16 16 17 17 16 16 15 15 14 13 13 12 13 13 13 12 12 11 11 10 10 9 9 8 8 7 7 6 5 4 4 3 3 2 2 1 -0 -1 -3 -4 -4 -4 -2
15 15 16 16 15 15 14 14 13 13 12 12 12 12 12 12 12 11 10 10 9 9 8 8 7 6 6 5 4 4 3 3 2 2 1 0 -1 -2 -3 -4 -4 -5 -4
15 15 15 16 15 15 14 13 12 12 12 12 12 11 11 11 11 10 10 9 8 8 7 7 6 5 4 4 3 3 3 2 2 1 0 -0 -1 -3 -3 -4 -6 -6 -6
14 14 14 14 14 14 13 13 12 11 11 11 11 11 10 10 10 9 9 8 8 7 7 6 5 4 4 3 3 2 2 2 1 1 -0 -1 -2 -3 -4 -5 -6 -7 -7
13 12 12 12 13 13 12 11 11 11 11 10 10 10 10 9 9 9 8 7 7 6 6 5 4 3 3 2 2 2 1 1 1 0 -1 -2 -3 -4 -5 -6 -6 -7 -8
11 10 10 10 11 11 11 11 11 11 10 10 10 10 9 9 8 8 7 7 6 6 5 4 3 3 2 2 2 1 1 1 0 -1 -2 -3 -4 -5 -5 -6 -7 -7 -8
9 8 8 8 9 10 10 10 10 10 10 10 9 9 9 8 7 7 6 6 5 5 4 3 3 2 2 1 1 1 0 -0 -1 -2 -3 -4 -5 -6 -6 -7 -7 -8 -8
7 6 7 8 9 10 10 10 9 9 9 9 9 8 8 7 7 6 6 5 5 4 3 2 2 2 1 1 1 0 -0 -1 -2 -3 -4 -5 -6 -6 -7 -8 -8 -8 -9
5 5 6 8 9 9 9 9 9 9 9 8 8 8 7 6 6 6 5 4 4 3 2 2 1 1 1 0 -0 -1 -1 -2 -3 -4 -5 -6 -7 -7 -8 -8 -8 -9 -9
5 5 6 8 9 9 9 9 8 8 8 8 7 7 6 6 5 5 4 4 3 2 2 1 1 1 0 -0 -1 -2 -3 -4 -5 -6 -6 -7 -7 -8 -9 -9 -9 -9 -9
5 5 6 8 9 9 8 8 8 7 7 7 6 6 5 5 4 4 3 3 2 1 1 1 0 -0 -0 -1 -2 -3 -4 -5 -6 -7 -7 -7 -8 -8 -9 -9 -9 -9 -8
5 5 7 8 8 8 8 8 7 7 6 6 6 5 5 4 4 3 2 2 1 1 0 0 -0 -1 -1 -2 -2 -3 -5 -6 -7 -7 -8 -8 -8 -9 -9 -9 -9 -9 -9
5 6 7 8 8 8 8 7 7 6 6 5 5 4 4 3 3 2 1 1 1 0 0 -0 -1 -1 -2 -3 -3 -4 -6 -6 -7 -8 -8 -8 -9 -9 -9 -9 -9 -9 -9
7 8 8 9 8 8 7 7 6 6 5 5 4 4 3 3 2 1 1 0 0 -0 -1 -1 -2 -2 -3 -3 -4 -6 -7 -7 -8 -8 -9 -9 -10 -10 -9 -9 -9 -10 -9
8 8 8 8 8 7 7 6 6 5 4 4 3 3 2 2 1 1 0 -0 -0 -1 -1 -2 -2 -3 -3 -4 -5 -7 -8 -8 -9 -9 -9 -10 -10 -10 -9 -9 -10 -10 -10
8 8 8 8 8 7 6 6 5 4 4 3 2 2 1 1 0 0 -0 -1 -1 -1 -2 -2 -3 -3 -4 -5 -6 -7 -9 -9 -9 -9 -9 -10 -10 -10 -10 -10 -10 -10 -10
8 8 8 7 7 6 6 5 4 3 3 2 2 1 1 0 -0 -0 -1 -1 -2 -2 -3 -3 -3 -4 -5 -6 -7 -8 -9 -9 -9 -10 -10 -10 -10 -10 -10 -10 -10 -11 -11
7 7 7 6 6 5 5 5 4 3 2 2 1 1 0 -0 -1 -1 -1 -2 -2 -3 -4 -4 -5 -5 -6 -7 -8 -9 -9 -10 -10 -10 -10 -10 -10 -10 -9 -9 -10 -10 -10
7 6 6 6 5 4 4 4 3 2 1 1 0 -0 -1 -1 -1 -2 -2 -3 -3 -4 -5 -6 -7 -7 -7 -8 -9 -10 -10 -10 -10 -10 -10 -10 -10 -9 -9 -9 -9 -10 -10
6 6 6 5 4 3 2 2 2 1 1 0 -0 -1 -1 -2 -2 -2 -3 -3 -4 -5 -6 -7 -8 -9 -9 -9 -10 -10 -10 -10 -10 -11 -10 -10 -10 -10 -10 -10 -10 -10 -10
5 5 4 4 2 2 1 1 1 0 -0 -1 -1 -1 -2 -2 -2 -3 -3 -4 -5 -6 -7 -7 -8 -8 -9 -9 -10 -10 -10 -10 -10 -11 -10 -10 -10 -10 -11 -10 -10 -10 -9
Wind_Speed
12 8 7 7 6 6 7 8 11 12 14 12 11 9 8 8 8 8 12 13 14 14 12 7 6 7 7 7 6 4 6 6 6 5 6 5 3 3 1 2 1 2 8
9 7 7 7 7 7 8 9 12 13 12 10 7 6 7 7 8 8 10 13 14 13 12 8 7 6 6 8 8 6 3 5 6 4 4 6 6 5 4 4 3 4 7
14 11 10 9 8 8 10 10 11 11 11 12 13 13 9 7 6 8 7 9 13 14 13 11 8 6 7 6 6 6 5 4 4 5 4 3 4 5 5 5 4 5 5
15 12 11 10 10 9 9 10 11 12 13 14 17 19 12 9 6 7 8 8 12 13 13 12 10 6 6 6 6 5 4 4 3 3 2 2 3 4 6 5 4 5 8
16 15 14 14 11 10 10 11 12 12 12 11 15 15 13 11 10 10 11 10 8 10 12 12 9 6 5 6 6 5 4 3 2 1 2 2 2 3 4 7 6 7 6
16 14 12 11 10 10 11 12 13 12 10 11 12 17 19 18 15 12 10 8 6 6 8 10 8 7 5 5 4 4 4 2 1 0 1 2 2 3 4 6 12 12 7
13 13 15 16 16 15 14 13 15 13 11 12 12 15 18 17 15 13 11 9 6 5 6 6 5 5 5 5 4 3 3 1 1 2 2 2 3 3 4 7 12 13 8
12 15 18 19 19 18 17 16 16 14 13 13 13 13 13 11 10 10 9 8 7 6 5 6 6 6 5 4 3 2 2 1 2 4 4 3 5 4 4 5 9 14 7
13 15 17 19 19 19 17 17 17 15 14 14 14 13 12 12 12 10 9 8 7 6 6 6 5 4 4 3 2 2 3 3 3 4 5 5 5 5 6 5 5 7 14
12 14 16 16 16 16 15 15 17 17 15 14 13 12 12 12 12 11 10 8 7 7 7 6 5 4 3 3 2 2 3 4 4 4 6 6 6 6 6 6 7 7 12
15 16 16 15 15 16 16 16 16 17 15 14 14 14 12 12 11 10 9 8 7 7 6 5 4 3 3 3 3 4 4 5 6 6 6 8 8 6 6 6 7 8 10
13 15 16 17 17 17 16 16 15 16 14 14 15 14 12 12 11 10 8 8 7 6 5 4 4 3 3 3 4 5 6 6 7 8 7 8 8 8 7 7 9 9 10
15 16 16 16 16 16 16 15 15 15 14 15 15 13 12 11 10 9 8 7 7 6 5 4 3 3 4 4 5 5 7 7 7 7 7 8 9 9 9 9 10 10 11
15 15 15 14 15 15 15 15 14 14 15 14 14 13 11 10 9 8 8 7 6 6 4 3 3 3 4 5 6 6 7 6 6 6 7 8 9 11 11 11 10 10 11
15 15 15 14 15 15 14 14 14 13 14 14 13 11 10 9 9 8 7 6 6 5 3 3 3 4 4 5 7 6 6 6 6 7 8 9 14 17 15 14 12 12 13
15 14 15 15 15 16 15 15 14 12 13 13 12 11 10 9 8 8 7 6 5 3 3 3 4 5 5 11 15 12 6 5 7 9 9 10 12 17 22 26 25 23 19
14 15 15 15 15 15 16 15 13 13 13 13 11 10 10 9 8 7 6 5 3 3 3 4 5 6 8 13 15 16 9 6 8 9 10 12 13 18 13 20 24 21 23
14 14 14 13 13 13 14 14 13 13 13 12 10 9 9 9 7 6 5 4 2 2 3 4 5 6 8 14 16 18 9 7 9 10 10 12 12 14 18 16 15 12 12
12 13 13 15 15 15 15 15 13 12 12 11 10 9 9 8 7 6 4 2 2 2 3 4 6 6 9 14 17 18 7 7 9 10 10 12 11 22 27 18 15 14 13
13 14 15 16 15 14 15 16 14 12 11 10 9 8 8 8 7 5 3 2 1 3 4 5 6 7 8 13 18 19 7 8 9 8 8 16 20 25 27 16 12 15 16
16 16 16 15 14 15 15 15 13 11 10 11 10 9 8 7 6 4 2 2 2 4 5 6 7 7 9 13 18 20 9 9 9 10 8 10 24 27 27 23 12 18 20
16 16 16 14 12 13 15 15 12 11 11 11 10 8 7 5 5 4 3 3 4 5 6 6 7 6 7 11 16 20 19 18 11 11 10 13 26 27 25 19 20 25 20
14 14 16 15 11 10 13 16 11 11 12 11 9 7 7 5 4 3 3 3 3 4 5 5 7 7 6 9 18 20 22 22 13 11 20 24 25 23 16 19 23 19 11
14 15 16 16 12 10 11 13 12 11 11 10 8 6 5 4 4 3 2 3 4 5 6 6 7 8 7 7 8 8 11 16 14 12 16 21 21 17 17 16 14 11 11
12 13 15 15 13 12 12 11 10 11 11 9 6 5 4 3 3 3 2 4 4 5 8 5 6 8 8 12 20 16 11 11 13 15 8 8 10 10 11 11 11 11 11
13 14 15 15 13 13 11 9 9 9 9 7 5 4 3 2 3 4 5 7 8 12 14 14 13 11 16 21 22 22 22 22 22 14 9 10 11 11 12 13 13 13 12
Wind_Direction
253 248 224 192 171 167 157 148 144 145 144 141 136 129 118 109 99 96 100 102 103 101 98 95 81 73 73 61 46 49 37 20 1 1 339 336 352 354 10 15 357 24 22
247 226 201 182 179 174 162 150 151 152 151 146 132 121 118 106 98 97 94 98 101 99 96 92 87 78 78 62 48 47 47 22 25 30 4 347 338 343 346 339 350 11 11
240 225 200 195 183 180 170 159 153 147 138 131 122 117 108 105 103 101 94 90 95 94 95 91 87 78 77 73 60 53 63 31 14 41 56 13 312 311 311 319 339 353 351
228 217 195 190 188 181 163 150 146 142 142 142 142 143 142 135 128 124 112 96 91 92 92 89 85 80 76 72 62 62 63 65 29 4 29 235 239 286 308 300 307 323 316
219 208 195 190 177 161 153 145 140 140 144 145 146 137 127 122 125 118 109 98 86 85 87 86 83 78 75 73 65 60 58 71 78 7 321 312 290 247 269 293 303 304 282
216 203 183 162 153 148 145 144 142 139 138 137 138 137 134 135 133 126 116 106 95 82 80 83 81 79 75 70 64 61 56 59 56 315 257 249 273 286 277 288 306 306 296
206 184 167 163 161 158 154 149 145 138 135 133 131 135 136 136 135 131 125 119 106 92 83 84 80 75 73 72 62 51 29 15 339 292 266 247 243 245 262 290 306 306 298
194 181 174 170 166 162 156 152 146 139 134 130 126 124 124 123 122 119 120 114 110 108 103 93 83 76 68 61 48 29 341 330 303 286 273 259 255 249 256 274 304 313 303
188 180 173 169 164 160 157 152 144 137 132 129 124 120 117 118 118 112 106 106 108 108 98 90 83 68 56 40 18 344 321 314 290 279 271 259 258 255 255 257 266 290 307
179 171 168 164 158 151 142 140 139 135 130 127 126 122 116 115 116 113 108 105 102 99 97 87 77 60 39 11 351 322 314 315 299 279 274 270 265 262 259 256 258 259 280
173 166 158 149 139 136 136 136 133 130 127 123 120 118 115 113 110 109 108 108 103 100 95 89 75 52 23 352 341 323 313 310 301 297 290 281 278 273 266 261 262 264 268
153 147 142 139 138 137 136 134 132 129 126 123 120 117 115 113 109 108 108 107 102 96 94 86 69 36 3 340 331 317 314 302 298 297 296 291 294 282 276 271 269 270 267
134 135 137 139 139 136 134 132 130 127 125 123 120 118 116 114 112 112 110 105 102 94 84 75 53 12 342 327 314 301 297 294 292 295 296 293 291 288 283 277 277 276 282
138 139 139 137 136 134 133 130 126 127 125 122 121 120 119 118 117 113 108 103 101 94 78 59 29 353 326 311 300 296 294 293 295 295 290 288 287 285 283 287 279 287 292
146 146 142 138 134 131 129 128 127 126 125 122 121 121 120 116 113 108 104 99 92 86 68 38 7 344 321 311 310 302 298 297 295 292 286 287 300 304 305 306 306 303 298
156 148 143 141 140 138 135 132 129 127 125 123 123 124 121 115 111 108 104 95 84 67 38 14 350 338 332 324 326 326 305 291 291 297 294 293 297 302 311 311 307 304 303
159 155 152 149 144 142 140 137 133 127 123 123 125 125 121 114 110 107 98 87 75 46 10 348 338 325 317 327 328 324 322 299 292 293 296 304 307 312 298 298 303 304 305
156 151 145 139 134 130 130 126 127 126 124 124 125 123 118 113 108 99 89 77 62 20 347 329 325 319 319 331 327 323 327 298 287 286 288 292 295 300 306 305 309 304 300
149 145 140 137 135 135 135 130 126 125 125 127 125 122 119 116 108 96 84 71 32 355 328 318 321 318 316 328 326 326 306 295 291 290 291 301 301 305 313 317 312 308 306
132 132 131 131 133 136 136 131 131 130 130 128 121 115 114 114 109 102 89 56 7 332 327 322 317 311 306 320 327 325 302 302 302 297 291 307 313 313 319 320 315 314 311
125 128 130 133 137 139 135 131 130 128 124 118 112 107 106 108 108 98 79 37 2 346 336 321 314 306 309 322 325 324 322 310 311 314 309 305 315 319 322 324 318 309 315
121 125 124 123 128 133 130 125 122 119 116 113 109 105 100 98 97 87 60 26 6 346 331 319 314 302 302 316 320 324 323 323 318 314 311 312 319 324 325 323 316 319 325
117 119 121 118 112 115 125 123 122 121 115 110 107 105 97 85 81 73 36 6 355 336 318 309 308 309 305 310 320 322 323 324 322 311 315 319 323 326 324 317 320 325 320
116 120 119 116 107 100 105 117 121 118 114 111 109 105 97 80 51 39 22 352 328 317 311 311 310 309 308 305 303 302 313 321 319 312 315 323 323 322 318 319 319 316 310
114 116 117 114 109 105 103 108 114 114 110 108 104 96 85 70 33 7 332 315 281 287 310 302 302 314 312 314 323 328 322 322 319 325 324 323 321 322 320 318 317 316 316
111 109 108 109 108 106 102 99 105 112 113 108 99 89 74 46 22 349 328 322 320 322 323 323 322 318 317 321 327 327 328 329 330 332 324 320 319 318 318 318 317 316 315
Height
1446 1449 1451 1452 1453 1455 1457 1459 1461 1463 1466 1469 1473 1478 1482 1486 1490 1493 1496 1498 1500 1501 1503 1503 1503 1503 1501 1499 1497 1495 1492 1489 1487 1484 1482 1481 1480 1479 1478 1477 1476 1474 1472
1440 1442 1445 1446 1448 1450 1452 1455 1457 1459 1461 1465 1469 1474 1479 1483 1487 1490 1493 1496 1498 1500 1501 1501 1501 1500 1498 1496 1494 1492 1490 1487 1484 1482 1479 1477 1476 1475 1475 1474 1472 1469 1466
1432 1435 1438 1441 1444 1446 1448 1450 1453 1455 1458 1462 1466 1471 1476 1480 1484 1488 1491 1494 1496 1498 1499 1499 1498 1497 1496 1494 1491 1489 1488 1486 1484 1482 1481 1479 1475 1471 1466 1466 1464 1461 1458
1424 1427 1431 1435 1438 1441 1444 1447 1449 1452 1455 1459 1463 1467 1472 1477 1481 1485 1488 1491 1494 1495 1496 1496 1496 1495 1493 1491 1489 1487 1486 1484 1483 1481 1480 1479 1476 1470 1461 1457 1457 1454 1450
1413 1417 1422 1428 1432 1436 1439 1442 1445 1449 1453 1457 1462 1467 1471 1475 1479 1483 1486 1489 1492 1493 1494 1494 1493 1492 1491 1489 1488 1486 1484 1482 1480 1478 1476 1474 1472 1468 1462 1452 1446 1443 1442
1403 1408 1414 1420 1425 1430 1435 1439 1442 1446 1450 1456 1461 1465 1469 1473 1476 1480 1484 1488 1490 1491 1492 1492 1491 1490 1488 1487 1486 1484 1482 1480 1478 1476 1473 1471 1468 1464 1460 1450 1441 1435 1431
1395 1399 1404 1411 1417 1424 1430 1434 1439 1443 1449 1454 1460 1464 1469 1472 1476 1480 1483 1486 1488 1489 1490 1489 1488 1487 1486 1485 1483 1482 1480 1478 1475 1473 1470 1467 1464 1461 1457 1450 1439 1429 1422
1387 1391 1396 1403 1410 1418 1424 1430 1436 1441 1447 1453 1458 1463 1468 1472 1476 1479 1482 1485 1486 1487 1487 1487 1486 1485 1484 1482 1481 1479 1477 1474 1472 1469 1466 1463 1460 1457 1453 1448 1439 1426 1415
1381 1385 1391 1397 1405 1412 1419 1426 1432 1439 1445 1451 1457 1462 1467 1471 1475 1478 1481 1483 1484 1485 1485 1485 1483 1482 1481 1480 1478 1476 1474 1471 1468 1465 1462 1459 1455 1452 1448 1444 1440 1433 1417
1376 1381 1386 1393 1400 1408 1416 1425 1432 1438 1444 1450 1456 1461 1466 1470 1474 1477 1479 1481 1482 1483 1482 1482 1481 1480 1478 1477 1475 1472 1470 1467 1464 1460 1457 1453 1449 1446 1442 1438 1435 1430 1421
1370 1376 1382 1390 1397 1405 1414 1423 1430 1436 1443 1449 1455 1461 1465 1469 1473 1476 1478 1479 1480 1480 1480 1479 1478 1477 1475 1473 1471 1468 1465 1462 1459 1455 1451 1447 1443 1439 1435 1431 1427 1422 1416
1368 1374 1381 1387 1396 1404 1413 1421 1429 1435 1442 1449 1455 1460 1464 1468 1471 1474 1476 1477 1477 1477 1477 1476 1475 1474 1472 1470 1467 1464 1460 1457 1453 1449 1444 1440 1436 1432 1428 1423 1418 1414 1409
1369 1375 1381 1388 1396 1404 1413 1421 1428 1435 1442 1448 1454 1459 1463 1467 1470 1472 1474 1475 1475 1474 1474 1473 1472 1470 1468 1465 1462 1459 1455 1451 1447 1442 1438 1434 1429 1424 1420 1415 1411 1406 1401
1371 1376 1382 1389 1397 1405 1414 1422 1429 1436 1442 1448 1454 1458 1463 1466 1469 1470 1471 1472 1472 1472 1471 1470 1468 1466 1464 1461 1457 1453 1449 1445 1441 1437 1433 1428 1423 1418 1413 1408 1404 1399 1393
1374 1378 1383 1390 1398 1407 1415 1423 1430 1437 1443 1448 1454 1458 1462 1465 1467 1468 1469 1470 1470 1469 1468 1467 1465 1462 1460 1456 1452 1447 1444 1439 1435 1431 1427 1422 1417 1413 1408 1404 1398 1392 1386
1376 1380 1386 1392 1400 1408 1415 1423 1430 1437 1443 1448 1453 1457 1460 1463 1465 1466 1467 1467 1467 1467 1465 1464 1461 1458 1455 1451 1447 1443 1438 1434 1429 1424 1420 1415 1411 1406 1402 1397 1391 1387 1381
1377 1382 1387 1394 1402 1409 1417 1424 1431 1438 1444 1448 1452 1456 1459 1462 1463 1464 1465 1465 1465 1464 1462 1460 1457 1454 1450 1446 1442 1438 1433 1428 1424 1419 1414 1409 1404 1400 1393 1387 1383 1378 1373
1378 1384 1390 1397 1404 1412 1420 1427 1433 1439 1444 1448 1452 1455 1458 1460 1461 1463 1463 1463 1462 1461 1459 1456 1453 1449 1445 1441 1436 1432 1427 1422 1418 1414 1409 1403 1397 1392 1386 1381 1375 1369 1364
1379 1385 1391 1398 1406 1414 1421 1427 1434 1439 1444 1448 1451 1454 1457 1459 1460 1461 1461 1461 1460 1458 1455 1452 1448 1444 1440 1435 1431 1426 1421 1416 1412 1408 1403 1398 1392 1386 1381 1375 1368 1360 1354
1381 1387 1394 1401 1408 1415 1422 1428 1434 1439 1443 1448 1451 1454 1456 1458 1459 1459 1459 1458 1456 1454 1451 1448 1444 1439 1434 1430 1425 1421 1416 1411 1406 1401 1397 1392 1387 1381 1375 1369 1361 1353 1346
1383 1389 1395 1402 1409 1416 1423 1429 1434 1440 1444 1448 1451 1453 1455 1456 1457 1457 1456 1455 1453 1450 1447 1444 1440 1435 1430 1425 1421 1416 1412 1407 1401 1396 1390 1385 1380 1375 1369 1363 1355 1348 1343
1386 1391 1397 1404 1411 1418 1424 1430 1436 1440 1444 1448 1450 1452 1454 1455 1455 1455 1453 1451 1449 1445 1442 1438 1434 1431 1426 1421 1416 1412 1408 1403 1397 1390 1384 1378 1374 1368 1361 1355 1349 1344 1337
1389 1395 1400 1406 1414 1421 1427 1432 1437 1441 1445 1448 1450 1452 1453 1453 1453 1452 1450 1448 1444 1441 1437 1432 1428 1424 1420 1416 1412 1407 1402 1397 1392 1385 1380 1374 1368 1361 1355 1349 1344 1338 1331
1393 1398 1404 1410 1417 1424 1430 1435 1438 1442 1445 1448 1449 1451 1451 1451 1451 1449 1447 1444 1440 1436 1432 1428 1423 1419 1415 1410 1405 1401 1396 1391 1386 1379 1373 1368 1362 1356 1350 1345 1339 1333 1327
1398 1403 1409 1414 1420 1427 1432 1437 1440 1443 1446 1447 1449 1450 1450 1449 1448 1446 1444 1440 1437 1433 1429 1424 1420 1415 1410 1406 1403 1398 1392 1387 1381 1374 1368 1362 1356 1350 1345 1339 1334 1329 1323
1403 1408 1414 1419 1425 1430 1434 1438 1442 1444 1446 1447 1448 1448 1448 1447 1445 1443 1441 1438 1435 1431 1426 1422 1418 1412 1408 1402 1398 1393 1388 1382 1376 1370 1363 1358 1352 1346 1341 1335 1329 1324 1319